• In Germany
  • List of Countries
  • For 7 days
  • Water Temperature
  • Satellite Maps
  • Weather Map
  • Weather Widgets
  • user-avatar
    Login

    Hourly Weather Fier

    Today, 29 March, Wednesday

    Time Temperature Precipitation Wind Pressure Humidity
    00:00 +10°C° 0 mm 3 mps 764 mmHg 64%
    01:00 +10°C° 0 mm 3 mps 764 mmHg 63%
    02:00 +10°C° 0 mm 3 mps 764 mmHg 62%
    03:00 +9°C° 0 mm 3 mps 764 mmHg 61%
    04:00 +9°C° 0 mm 3 mps 764 mmHg 60%
    05:00 +10°C° 0 mm 3 mps 764 mmHg 58%
    06:00 +11°C° 0 mm 3 mps 764 mmHg 56%
    07:00 +12°C° 0 mm 3 mps 764 mmHg 54%
    08:00 +14°C° 0 mm 3 mps 764 mmHg 48%
    09:00 +18°C° 0 mm 3 mps 764 mmHg 41%
    10:00 +20°C° 0 mm 3 mps 764 mmHg 35%
    11:00 +21°C° 0 mm 3 mps 764 mmHg 33%
    12:00 +22°C° 0 mm 3 mps 763 mmHg 32%
    13:00 +22°C° 0 mm 4 mps 763 mmHg 30%
    14:00 +22°C° 0 mm 4 mps 763 mmHg 33%
    15:00 +21°C° 0 mm 5 mps 763 mmHg 36%
    16:00 +20°C° 0 mm 5 mps 762 mmHg 39%
    17:00 +18°C° 0 mm 4 mps 762 mmHg 50%
    18:00 +15°C° 0 mm 4 mps 763 mmHg 60%
    19:00 +12°C° 0 mm 3 mps 763 mmHg 71%
    20:00 +12°C° 0 mm 3 mps 763 mmHg 70%
    21:00 +11°C° 0 mm 3 mps 763 mmHg 69%
    22:00 +11°C° 0 mm 3 mps 764 mmHg 69%
    23:00 +11°C° 0 mm 3 mps 764 mmHg 67%

    Tomorrow, 30 March, Thursday

    Time Temperature Precipitation Wind Pressure Humidity
    00:00 +12°C° 0 mm 2 mps 764 mmHg 65%
    01:00 +12°C° 0 mm 2 mps 764 mmHg 63%
    02:00 +10°C° 0 mm 2 mps 764 mmHg 62%
    03:00 +10°C° 0 mm 2 mps 764 mmHg 61%
    04:00 +10°C° 0 mm 3 mps 763 mmHg 60%
    05:00 +11°C° 0 mm 3 mps 763 mmHg 58%
    06:00 +12°C° 0 mm 3 mps 764 mmHg 56%
    07:00 +13°C° 0 mm 3 mps 764 mmHg 54%
    08:00 +17°C° 0 mm 3 mps 764 mmHg 48%
    09:00 +19°C° 0 mm 3 mps 764 mmHg 43%
    10:00 +21°C° 0 mm 3 mps 764 mmHg 37%
    11:00 +22°C° 0 mm 3 mps 763 mmHg 36%
    12:00 +23°C° 0 mm 4 mps 763 mmHg 34%
    13:00 +25°C° 0 mm 4 mps 763 mmHg 33%
    14:00 +23°C° 0 mm 5 mps 763 mmHg 36%
    15:00 +22°C° 0 mm 6 mps 762 mmHg 39%
    16:00 +22°C° 0 mm 6 mps 762 mmHg 43%
    17:00 +20°C° 0 mm 6 mps 763 mmHg 52%
    18:00 +16°C° 0 mm 5 mps 763 mmHg 62%
    19:00 +14°C° 0 mm 5 mps 763 mmHg 72%
    20:00 +14°C° 0 mm 4 mps 764 mmHg 71%
    21:00 +14°C° 0 mm 4 mps 764 mmHg 70%
    22:00 +14°C° 0 mm 4 mps 764 mmHg 69%
    23:00 +13°C° 0 mm 4 mps 764 mmHg 69%

    Day after tomorrow, 31 March, Friday

    Time Temperature Precipitation Wind Pressure Humidity
    00:00 +13°C° 0 mm 4 mps 764 mmHg 68%
    01:00 +13°C° 0 mm 3 mps 764 mmHg 67%
    02:00 +12°C° 0 mm 3 mps 764 mmHg 69%
    03:00 +12°C° 0 mm 3 mps 764 mmHg 70%
    04:00 +12°C° 0 mm 3 mps 764 mmHg 71%
    05:00 +12°C° 0 mm 3 mps 764 mmHg 68%
    06:00 +13°C° 0 mm 3 mps 764 mmHg 65%
    07:00 +14°C° 0 mm 3 mps 765 mmHg 63%
    08:00 +17°C° 0 mm 3 mps 765 mmHg 56%
    09:00 +19°C° 0 mm 3 mps 765 mmHg 48%
    10:00 +21°C° 0 mm 2 mps 765 mmHg 41%
    11:00 +22°C° 0 mm 3 mps 764 mmHg 39%
    12:00 +24°C° 0 mm 3 mps 764 mmHg 37%
    13:00 +25°C° 0 mm 3 mps 764 mmHg 35%
    14:00 +23°C° 0 mm 4 mps 764 mmHg 38%
    15:00 +22°C° 0 mm 4 mps 763 mmHg 40%
    16:00 +22°C° 0 mm 4 mps 763 mmHg 42%
    17:00 +19°C° 0 mm 4 mps 763 mmHg 51%
    18:00 +17°C° 0 mm 3 mps 763 mmHg 60%
    19:00 +14°C° 0 mm 3 mps 764 mmHg 69%
    20:00 +14°C° 0 mm 3 mps 764 mmHg 69%
    21:00 +14°C° 0 mm 2 mps 764 mmHg 70%
    22:00 +14°C° 0 mm 2 mps 764 mmHg 70%
    23:00 +14°C° 0 mm 2 mps 764 mmHg 70%

    1 April, Saturday

    Time Temperature Precipitation Wind Pressure Humidity
    00:00 +14°C° 0 mm 2 mps 764 mmHg 71%
    01:00 +13°C° 0 mm 2 mps 764 mmHg 72%
    02:00 +13°C° 0 mm 2 mps 764 mmHg 72%
    03:00 +13°C° 0 mm 2 mps 764 mmHg 72%
    04:00 +13°C° 0 mm 2 mps 764 mmHg 73%
    05:00 +13°C° 0 mm 2 mps 764 mmHg 70%
    06:00 +14°C° 0 mm 2 mps 764 mmHg 67%
    07:00 +15°C° 0 mm 2 mps 764 mmHg 64%
    08:00 +17°C° 0 mm 2 mps 764 mmHg 58%
    09:00 +19°C° 0 mm 2 mps 764 mmHg 52%
    10:00 +21°C° 0 mm 3 mps 764 mmHg 46%
    11:00 +21°C° 0 mm 3 mps 763 mmHg 45%
    12:00 +22°C° 0 mm 4 mps 763 mmHg 44%
    13:00 +22°C° 0 mm 4 mps 762 mmHg 43%
    14:00 +21°C° 0 mm 4 mps 762 mmHg 47%
    15:00 +20°C° 0 mm 4 mps 762 mmHg 51%
    16:00 +20°C° 0 mm 4 mps 762 mmHg 55%
    17:00 +18°C° 0 mm 4 mps 762 mmHg 63%
    18:00 +16°C° 0 mm 3 mps 762 mmHg 72%
    19:00 +13°C° 0 mm 3 mps 762 mmHg 80%
    20:00 +13°C° 0 mm 3 mps 762 mmHg 81%
    21:00 +13°C° 0 mm 3 mps 763 mmHg 81%
    22:00 +12°C° 0 mm 3 mps 763 mmHg 81%
    23:00 +12°C° 0 mm 3 mps 763 mmHg 81%

    2 April, Sunday

    Time Temperature Precipitation Wind Pressure Humidity
    00:00 +12°C° 0 mm 3 mps 763 mmHg 82%
    01:00 +12°C° 0 mm 3 mps 763 mmHg 82%
    02:00 +12°C° 0 mm 3 mps 763 mmHg 82%
    03:00 +11°C° 0 mm 3 mps 763 mmHg 82%
    04:00 +11°C° 0 mm 3 mps 762 mmHg 82%
    05:00 +12°C° 0 mm 3 mps 763 mmHg 78%
    06:00 +13°C° 0 mm 3 mps 763 mmHg 74%
    07:00 +14°C° 0 mm 3 mps 763 mmHg 69%
    08:00 +17°C° 0 mm 3 mps 763 mmHg 61%
    09:00 +19°C° 0 mm 3 mps 763 mmHg 52%
    10:00 +21°C° 0 mm 3 mps 763 mmHg 44%
    11:00 +21°C° 0.1 mm 4 mps 763 mmHg 43%
    12:00 +21°C° 0.1 mm 5 mps 763 mmHg 42%
    13:00 +22°C° 0.1 mm 6 mps 762 mmHg 40%
    14:00 +21°C° 0.2 mm 5 mps 762 mmHg 46%
    15:00 +20°C° 0.2 mm 5 mps 762 mmHg 51%
    16:00 +19°C° 0.2 mm 5 mps 762 mmHg 56%
    17:00 +18°C° 0.1 mm 4 mps 762 mmHg 64%
    18:00 +15°C° 0.1 mm 4 mps 762 mmHg 72%
    19:00 +14°C° 0.1 mm 3 mps 762 mmHg 81%
    20:00 +13°C° 0.2 mm 3 mps 763 mmHg 80%
    21:00 +13°C° 0.2 mm 3 mps 763 mmHg 80%
    22:00 +13°C° 0.2 mm 3 mps 763 mmHg 80%
    23:00 +13°C° 0.1 mm 3 mps 763 mmHg 79%

    3 April, Monday

    Time Temperature Precipitation Wind Pressure Humidity
    00:00 +13°C° 0.1 mm 2 mps 763 mmHg 79%
    01:00 +13°C° 0.1 mm 2 mps 762 mmHg 78%
    02:00 +13°C° 0.3 mm 2 mps 762 mmHg 79%
    03:00 +13°C° 0.3 mm 2 mps 762 mmHg 79%
    04:00 +12°C° 0.3 mm 2 mps 761 mmHg 79%
    05:00 +12°C° 0.2 mm 3 mps 761 mmHg 77%
    06:00 +13°C° 0.2 mm 3 mps 761 mmHg 75%
    07:00 +13°C° 0.2 mm 4 mps 761 mmHg 74%
    08:00 +15°C° 0 mm 4 mps 761 mmHg 65%
    09:00 +17°C° 0 mm 4 mps 760 mmHg 56%
    10:00 +19°C° 0 mm 4 mps 760 mmHg 47%
    11:00 +19°C° 0.1 mm 4 mps 760 mmHg 48%
    12:00 +19°C° 0.1 mm 4 mps 760 mmHg 50%
    13:00 +19°C° 0.1 mm 5 mps 759 mmHg 51%
    14:00 +18°C° 0.4 mm 4 mps 759 mmHg 56%
    15:00 +17°C° 0.4 mm 4 mps 759 mmHg 61%
    16:00 +17°C° 0.4 mm 4 mps 759 mmHg 67%
    17:00 +16°C° 0.9 mm 3 mps 759 mmHg 73%
    18:00 +14°C° 0.9 mm 3 mps 759 mmHg 80%
    19:00 +13°C° 0.9 mm 2 mps 759 mmHg 86%
    20:00 +12°C° 1.6 mm 3 mps 759 mmHg 88%
    21:00 +12°C° 1.6 mm 3 mps 759 mmHg 89%
    22:00 +11°C° 1.6 mm 3 mps 759 mmHg 91%
    23:00 +11°C° 1.3 mm 3 mps 759 mmHg 91%
    Show more